DLH3FL LROP-EDDF

Flight info

Callsign DLH3FL
Flight time 2h 10m
Altitude 36000
Route SOKRU DCT OXDOC DCT DEGET DCT ARSIN DCT SUBEN DCT AKINI T161 DEBHI DEBHI1B
Aircraft A320/M-SDE2E3FGIJ1LORWXYZ/HB1

Departure

Time 2026-05-07 07:07
Airport Bucharest Henri Coandă International Airport (LROP)

Arrival

Time 2026-05-07 09:18
Airport Frankfurt Main Airport (EDDF)
Time Latitude Longitude Altitude Speed Heading
2026-05-07 06:36 44.57129 26.08006 319 ft 0 kts 174°
2026-05-07 06:58 44.57140 26.08004 321 ft 4 kts 174°
2026-05-07 06:58 44.57167 26.08000 321 ft 4 kts 165°
2026-05-07 06:58 44.57188 26.07984 320 ft 4 kts 120°
2026-05-07 06:59 44.57193 26.07957 321 ft 1 kts 84°
2026-05-07 06:59 44.57193 26.07951 320 ft 0 kts 84°
2026-05-07 07:02 44.57194 26.07969 322 ft 7 kts 84°
2026-05-07 07:02 44.57201 26.08057 323 ft 10 kts 84°
2026-05-07 07:02 44.57207 26.08146 323 ft 9 kts 84°
2026-05-07 07:02 44.57215 26.08244 323 ft 11 kts 84°
2026-05-07 07:03 44.57222 26.08341 323 ft 10 kts 84°
2026-05-07 07:03 44.57229 26.08430 323 ft 10 kts 84°
2026-05-07 07:03 44.57241 26.08497 321 ft 5 kts 44°
2026-05-07 07:03 44.57272 26.08499 323 ft 5 kts 353°
2026-05-07 07:04 44.57304 26.08494 323 ft 4 kts 354°
2026-05-07 07:04 44.57329 26.08491 323 ft 4 kts 354°
2026-05-07 07:04 44.57366 26.08486 322 ft 7 kts 354°
2026-05-07 07:04 44.57428 26.08476 321 ft 9 kts 354°
2026-05-07 07:05 44.57489 26.08468 323 ft 8 kts 355°
2026-05-07 07:05 44.57538 26.08462 322 ft 3 kts 353°
2026-05-07 07:05 44.57552 26.08460 323 ft 2 kts 353°
2026-05-07 07:05 44.57561 26.08458 323 ft 3 kts 353°
2026-05-07 07:06 44.57593 26.08453 323 ft 5 kts 353°
2026-05-07 07:06 44.57637 26.08447 323 ft 7 kts
2026-05-07 07:06 44.57664 26.08473 323 ft 4 kts 58°
2026-05-07 07:06 44.57669 26.08504 324 ft 4 kts 82°
2026-05-07 07:07 44.57686 26.08702 323 ft 51 kts 84°
2026-05-07 07:07 44.57746 26.09535 322 ft 117 kts 84°
2026-05-07 07:07 44.57849 26.10916 387 ft 161 kts 84°
2026-05-07 07:07 44.57958 26.12436 1146 ft 155 kts 85°
2026-05-07 07:08 44.58070 26.13949 1812 ft 161 kts 86°
2026-05-07 07:08 44.58191 26.15592 2188 ft 183 kts 85°
2026-05-07 07:08 44.58333 26.17479 2543 ft 207 kts 85°
2026-05-07 07:08 44.58518 26.19574 3107 ft 223 kts 77°
2026-05-07 07:09 44.59336 26.21530 3575 ft 250 kts 40°
2026-05-07 07:09 44.60984 26.22457 4227 ft 265 kts
2026-05-07 07:09 44.62752 26.21821 5152 ft 267 kts 326°
2026-05-07 07:09 44.64027 26.19947 6128 ft 268 kts 306°
2026-05-07 07:10 44.65322 26.18083 7061 ft 271 kts 329°
2026-05-07 07:10 44.67117 26.17219 7938 ft 277 kts 349°
2026-05-07 07:10 44.69054 26.16959 8828 ft 282 kts 356°
2026-05-07 07:10 44.71033 26.16902 9711 ft 287 kts 359°
2026-05-07 07:11 44.73055 26.16846 10367 ft 299 kts 355°
2026-05-07 07:11 44.75170 26.16275 10676 ft 321 kts 339°
2026-05-07 07:11 44.77141 26.14708 11225 ft 331 kts 319°
2026-05-07 07:11 44.78696 26.12310 11941 ft 335 kts 302°
2026-05-07 07:12 44.79917 26.09493 12693 ft 339 kts 299°
2026-05-07 07:12 44.81150 26.06631 13454 ft 344 kts 300°
2026-05-07 07:12 44.82413 26.03735 14160 ft 349 kts 300°
2026-05-07 07:12 44.83694 26.00816 14845 ft 352 kts 301°
2026-05-07 07:13 44.84989 25.97870 15542 ft 355 kts 301°
2026-05-07 07:13 44.86238 25.94858 16239 ft 357 kts 294°
2026-05-07 07:13 44.87105 25.91638 16938 ft 357 kts 285°
2026-05-07 07:13 44.87817 25.88264 17619 ft 360 kts 285°
2026-05-07 07:14 44.88532 25.84866 18316 ft 363 kts 286°
2026-05-07 07:14 44.89251 25.81433 18886 ft 366 kts 285°
2026-05-07 07:14 44.89973 25.77988 19521 ft 367 kts 286°
2026-05-07 07:14 44.90698 25.74531 20129 ft 369 kts 286°
2026-05-07 07:15 44.91428 25.71039 20679 ft 372 kts 286°
2026-05-07 07:15 44.92159 25.67523 21251 ft 375 kts 286°
2026-05-07 07:15 44.92893 25.63983 21819 ft 377 kts 286°
2026-05-07 07:15 44.93633 25.60418 22380 ft 379 kts 286°
2026-05-07 07:16 44.94375 25.56840 22957 ft 381 kts 286°
2026-05-07 07:16 44.95122 25.53244 23520 ft 383 kts 286°
2026-05-07 07:16 44.95871 25.49626 23991 ft 385 kts 286°
2026-05-07 07:16 44.96623 25.45988 24446 ft 387 kts 286°
2026-05-07 07:17 44.97376 25.42338 24908 ft 388 kts 286°
2026-05-07 07:17 44.98129 25.38674 25357 ft 390 kts 286°
2026-05-07 07:17 44.98883 25.34990 25797 ft 391 kts 286°
2026-05-07 07:17 44.99666 25.31304 26239 ft 393 kts 288°
2026-05-07 07:18 45.00550 25.27644 26672 ft 394 kts 289°
2026-05-07 07:18 45.01503 25.24002 27094 ft 396 kts 290°
2026-05-07 07:18 45.02493 25.20360 27518 ft 398 kts 291°
2026-05-07 07:18 45.03718 25.16850 27907 ft 400 kts 300°
2026-05-07 07:19 45.05137 25.13457 28323 ft 402 kts 299°
2026-05-07 07:19 45.06513 25.10073 28717 ft 403 kts 298°
2026-05-07 07:19 45.07912 25.06560 29122 ft 405 kts 298°
2026-05-07 07:19 45.09271 25.03118 29498 ft 407 kts 298°
2026-05-07 07:20 45.10652 24.99610 29895 ft 409 kts 298°
2026-05-07 07:20 45.12057 24.96043 30264 ft 410 kts 298°
2026-05-07 07:20 45.13452 24.92512 30587 ft 412 kts 298°
2026-05-07 07:20 45.14858 24.88970 30901 ft 413 kts 298°
2026-05-07 07:21 45.16248 24.85468 31208 ft 414 kts 298°
2026-05-07 07:21 45.17662 24.81904 31519 ft 415 kts 298°
2026-05-07 07:21 45.19074 24.78333 31906 ft 414 kts 298°
2026-05-07 07:21 45.20479 24.74779 32352 ft 412 kts 298°
2026-05-07 07:22 45.21871 24.71245 32793 ft 410 kts 298°
2026-05-07 07:22 45.23256 24.67722 33221 ft 408 kts 298°
2026-05-07 07:22 45.24636 24.64212 33668 ft 406 kts 298°
2026-05-07 07:22 45.26007 24.60725 34090 ft 404 kts 298°
2026-05-07 07:23 45.27373 24.57243 34440 ft 403 kts 297°
2026-05-07 07:23 45.28735 24.53766 34738 ft 403 kts 297°
2026-05-07 07:23 45.30096 24.50285 35029 ft 403 kts 297°
2026-05-07 07:23 45.31453 24.46811 35301 ft 403 kts 297°
2026-05-07 07:24 45.32813 24.43321 35568 ft 403 kts 297°
2026-05-07 07:24 45.34172 24.39833 35839 ft 404 kts 298°
2026-05-07 07:24 45.35534 24.36336 36010 ft 405 kts 298°
2026-05-07 07:24 45.36894 24.32839 36062 ft 402 kts 297°
2026-05-07 07:25 45.40925 24.22440 36066 ft 400 kts 297°
2026-05-07 07:26 45.43587 24.15548 36061 ft 400 kts 297°
2026-05-07 07:26 45.46262 24.08607 36057 ft 399 kts 297°
2026-05-07 07:27 45.48929 24.01669 36055 ft 399 kts 297°
2026-05-07 07:27 45.51598 23.94725 36051 ft 399 kts 297°
2026-05-07 07:28 45.54258 23.87775 36048 ft 400 kts 297°
2026-05-07 07:28 45.56915 23.80806 36040 ft 399 kts 297°
2026-05-07 07:29 45.59569 23.73833 36045 ft 400 kts 297°
2026-05-07 07:29 45.62226 23.66842 36045 ft 400 kts 296°
2026-05-07 07:30 45.64876 23.59846 36041 ft 400 kts 296°
2026-05-07 07:30 45.67524 23.52835 36041 ft 401 kts 296°
2026-05-07 07:31 45.70170 23.45818 36044 ft 401 kts 296°
2026-05-07 07:31 45.72810 23.38787 36041 ft 401 kts 296°
2026-05-07 07:32 45.75447 23.31745 36041 ft 402 kts 296°
2026-05-07 07:32 45.78067 23.24738 36036 ft 402 kts 296°
2026-05-07 07:33 45.80709 23.17679 36033 ft 402 kts 296°
2026-05-07 07:33 45.83342 23.10603 36030 ft 402 kts 296°
2026-05-07 07:34 45.85962 23.03521 36037 ft 402 kts 296°
2026-05-07 07:34 45.88590 22.96421 36028 ft 403 kts 296°
2026-05-07 07:35 45.91217 22.89306 36028 ft 404 kts 296°
2026-05-07 07:35 45.93844 22.82177 36028 ft 404 kts 296°
2026-05-07 07:36 45.96470 22.75031 36033 ft 404 kts 295°
2026-05-07 07:36 45.99086 22.67879 36044 ft 404 kts 295°
2026-05-07 07:37 46.01702 22.60719 36044 ft 404 kts 295°
2026-05-07 07:37 46.04309 22.53559 36039 ft 404 kts 295°
2026-05-07 07:38 46.06896 22.46441 36045 ft 404 kts 295°
2026-05-07 07:38 46.09494 22.39274 36052 ft 404 kts 295°
2026-05-07 07:39 46.12087 22.32097 36050 ft 403 kts 295°
2026-05-07 07:39 46.14674 22.24920 36043 ft 403 kts 295°
2026-05-07 07:40 46.17247 22.17754 36040 ft 404 kts 294°
2026-05-07 07:40 46.19824 22.10559 36039 ft 404 kts 294°
2026-05-07 07:41 46.22396 22.03353 36054 ft 404 kts 294°
2026-05-07 07:41 46.24965 21.96150 36049 ft 403 kts 294°
2026-05-07 07:42 46.27529 21.88942 36042 ft 403 kts 294°
2026-05-07 07:42 46.30088 21.81730 36040 ft 403 kts 294°
2026-05-07 07:43 46.32622 21.74563 36034 ft 403 kts 294°
2026-05-07 07:43 46.35165 21.67343 36051 ft 403 kts 293°
2026-05-07 07:44 46.37707 21.60115 36028 ft 403 kts 293°
2026-05-07 07:44 46.40252 21.52877 36032 ft 403 kts 293°
2026-05-07 07:45 46.42791 21.45634 36027 ft 403 kts 293°
2026-05-07 07:45 46.45324 21.38384 36038 ft 403 kts 293°
2026-05-07 07:46 46.47841 21.31124 36030 ft 403 kts 292°
2026-05-07 07:46 46.50149 21.23750 36025 ft 400 kts 287°
2026-05-07 07:47 46.52114 21.16200 36023 ft 400 kts 287°
2026-05-07 07:47 46.54089 21.08649 36018 ft 400 kts 287°
2026-05-07 07:48 46.56064 21.01090 36037 ft 400 kts 287°
2026-05-07 07:48 46.58021 20.93521 36029 ft 400 kts 286°
2026-05-07 07:49 46.59973 20.85944 36025 ft 400 kts 286°
2026-05-07 07:49 46.61915 20.78414 36023 ft 401 kts 286°
2026-05-07 07:50 46.63867 20.70830 36019 ft 400 kts 286°
2026-05-07 07:50 46.65810 20.63236 36035 ft 400 kts 286°
2026-05-07 07:51 46.67749 20.55640 36019 ft 400 kts 286°
2026-05-07 07:51 46.69360 20.49324 36014 ft 400 kts 286°
2026-05-07 07:52 46.71287 20.41706 36016 ft 401 kts 285°
2026-05-07 07:52 46.73206 20.34084 36006 ft 401 kts 286°
2026-05-07 07:53 46.75133 20.26458 36007 ft 401 kts 285°
2026-05-07 07:53 46.77052 20.18823 36006 ft 401 kts 285°
2026-05-07 07:54 46.78965 20.11180 36004 ft 401 kts 285°
2026-05-07 07:54 46.80870 20.03528 36000 ft 401 kts 285°
2026-05-07 07:55 46.82772 19.95872 35999 ft 401 kts 285°
2026-05-07 07:55 46.84672 19.88212 36013 ft 401 kts 285°
2026-05-07 07:56 46.86572 19.80537 36007 ft 402 kts 285°
2026-05-07 07:56 46.88463 19.72856 36005 ft 402 kts 285°
2026-05-07 07:57 46.90338 19.65165 36004 ft 402 kts 285°
2026-05-07 07:57 46.92212 19.57467 36021 ft 402 kts 285°
2026-05-07 07:58 46.94080 19.49818 36010 ft 402 kts 285°
2026-05-07 07:58 46.95960 19.42099 36005 ft 403 kts 284°
2026-05-07 07:59 46.97828 19.34372 36000 ft 403 kts 284°
2026-05-07 07:59 46.99687 19.26635 35999 ft 403 kts 284°
2026-05-07 08:00 47.01545 19.18891 36018 ft 403 kts 284°
2026-05-07 08:00 47.03400 19.11130 36003 ft 404 kts 284°
2026-05-07 08:01 47.05253 19.03356 36003 ft 404 kts 284°
2026-05-07 08:01 47.07106 18.95562 35998 ft 405 kts 284°
2026-05-07 08:02 47.08951 18.87763 35990 ft 405 kts 284°
2026-05-07 08:02 47.10796 18.79951 36009 ft 405 kts 284°
2026-05-07 08:03 47.12622 18.72186 35994 ft 405 kts 284°
2026-05-07 08:03 47.14455 18.64355 35988 ft 405 kts 284°
2026-05-07 08:04 47.16282 18.56518 35990 ft 406 kts 284°
2026-05-07 08:04 47.18107 18.48675 35978 ft 406 kts 284°
2026-05-07 08:05 47.19927 18.40828 36008 ft 405 kts 283°
2026-05-07 08:05 47.21743 18.32986 36002 ft 405 kts 283°
2026-05-07 08:06 47.23542 18.25156 35996 ft 404 kts 283°
2026-05-07 08:06 47.25330 18.17317 35992 ft 404 kts 283°
2026-05-07 08:07 47.27119 18.09489 35990 ft 403 kts 283°
2026-05-07 08:07 47.28891 18.01708 36010 ft 403 kts 282°
2026-05-07 08:08 47.30667 17.93874 35995 ft 403 kts 282°
2026-05-07 08:08 47.32436 17.86040 35984 ft 403 kts 282°
2026-05-07 08:09 47.34191 17.78207 35983 ft 402 kts 282°
2026-05-07 08:09 47.35942 17.70367 35972 ft 402 kts 282°
2026-05-07 08:10 47.37699 17.62521 35977 ft 403 kts 282°
2026-05-07 08:10 47.39455 17.54646 35967 ft 404 kts 282°
2026-05-07 08:11 47.41209 17.46753 35966 ft 405 kts 282°
2026-05-07 08:11 47.42955 17.38847 35965 ft 405 kts 282°
2026-05-07 08:12 47.44694 17.30925 35998 ft 405 kts 281°
2026-05-07 08:12 47.46432 17.22997 35985 ft 406 kts 281°
2026-05-07 08:13 47.48167 17.15063 35977 ft 406 kts 281°
2026-05-07 08:13 47.49893 17.07107 35983 ft 406 kts 281°
2026-05-07 08:14 47.51603 16.99203 35980 ft 406 kts 281°
2026-05-07 08:14 47.53321 16.91238 36017 ft 407 kts 281°
2026-05-07 08:15 47.55035 16.83260 36009 ft 407 kts 280°
2026-05-07 08:15 47.56742 16.75283 36007 ft 407 kts 281°
2026-05-07 08:16 47.58719 16.67379 35998 ft 411 kts 285°
2026-05-07 08:16 47.60957 16.59579 35992 ft 412 kts 285°
2026-05-07 08:17 47.63176 16.51756 35993 ft 411 kts 285°
2026-05-07 08:17 47.65312 16.43905 35990 ft 411 kts 284°
2026-05-07 08:18 47.67415 16.36030 35987 ft 410 kts 284°
2026-05-07 08:18 47.69517 16.28160 35986 ft 410 kts 284°
2026-05-07 08:19 47.71626 16.20294 35980 ft 410 kts 284°
2026-05-07 08:19 47.73726 16.12420 36010 ft 410 kts 284°
2026-05-07 08:20 47.75821 16.04537 35993 ft 410 kts 284°
2026-05-07 08:20 47.77915 15.96650 35986 ft 410 kts 284°
2026-05-07 08:21 47.80004 15.88752 35984 ft 411 kts 284°
2026-05-07 08:21 47.82090 15.80845 35990 ft 410 kts 284°
2026-05-07 08:22 47.84162 15.72937 36016 ft 410 kts 284°
2026-05-07 08:22 47.86226 15.65033 36011 ft 410 kts 283°
2026-05-07 08:23 47.88282 15.57121 36002 ft 410 kts 284°
2026-05-07 08:23 47.90327 15.49259 35998 ft 409 kts 283°
2026-05-07 08:24 47.92382 15.41344 36036 ft 409 kts 283°
2026-05-07 08:24 47.94426 15.33414 36018 ft 410 kts 283°
2026-05-07 08:25 47.96466 15.25470 36010 ft 410 kts 283°
2026-05-07 08:25 47.98507 15.17516 36007 ft 410 kts 283°
2026-05-07 08:26 48.01554 15.05566 35999 ft 411 kts 283°
2026-05-07 08:26 48.03575 14.97591 36021 ft 411 kts 283°
2026-05-07 08:27 48.05600 14.89605 36008 ft 411 kts 283°
2026-05-07 08:27 48.07621 14.81609 35999 ft 411 kts 283°
2026-05-07 08:28 48.09628 14.73603 35996 ft 411 kts 283°
2026-05-07 08:28 48.11631 14.65592 35993 ft 411 kts 283°
2026-05-07 08:29 48.13637 14.57567 36011 ft 412 kts 283°
2026-05-07 08:29 48.15630 14.49577 36001 ft 412 kts 283°
2026-05-07 08:30 48.17630 14.41523 36018 ft 413 kts 283°
2026-05-07 08:30 48.19616 14.33460 36011 ft 412 kts 283°
2026-05-07 08:31 48.21598 14.25393 36014 ft 412 kts 283°
2026-05-07 08:31 48.23573 14.17319 36017 ft 413 kts 283°
2026-05-07 08:32 48.25546 14.09231 36003 ft 413 kts 283°
2026-05-07 08:32 48.27517 14.01140 35996 ft 413 kts 283°
2026-05-07 08:33 48.29476 13.93035 35994 ft 413 kts 283°
2026-05-07 08:33 48.31431 13.84922 36022 ft 413 kts 283°
2026-05-07 08:34 48.33386 13.76793 36003 ft 414 kts 283°
2026-05-07 08:34 48.35341 13.68653 35996 ft 414 kts 283°
2026-05-07 08:35 48.37293 13.60490 35993 ft 415 kts 283°
2026-05-07 08:35 48.39239 13.52320 35992 ft 415 kts 283°
2026-05-07 08:36 48.41168 13.44197 36022 ft 415 kts 283°
2026-05-07 08:36 48.43103 13.35984 36000 ft 416 kts 283°
2026-05-07 08:37 48.45109 13.27787 35991 ft 419 kts 285°
2026-05-07 08:37 48.47290 13.19645 35992 ft 419 kts 286°
2026-05-07 08:38 48.49489 13.11498 35990 ft 419 kts 285°
2026-05-07 08:38 48.51650 13.03334 36003 ft 419 kts 286°
2026-05-07 08:39 48.53792 12.95136 35989 ft 420 kts 286°
2026-05-07 08:39 48.55926 12.86914 35985 ft 421 kts 286°
2026-05-07 08:40 48.58059 12.78680 35985 ft 421 kts 286°
2026-05-07 08:40 48.60194 12.70432 36000 ft 422 kts 285°
2026-05-07 08:41 48.62322 12.62167 35998 ft 422 kts 285°
2026-05-07 08:41 48.64446 12.53894 35994 ft 422 kts 285°
2026-05-07 08:42 48.66555 12.45670 35994 ft 422 kts 285°
2026-05-07 08:42 48.68660 12.37382 35994 ft 422 kts 285°
2026-05-07 08:43 48.70768 12.29089 35992 ft 422 kts 285°
2026-05-07 08:43 48.72875 12.20785 36001 ft 423 kts 286°
2026-05-07 08:44 48.74882 12.12424 35992 ft 420 kts 279°
2026-05-07 08:44 48.75750 12.05252 35991 ft 416 kts 274°
2026-05-07 08:45 48.76679 11.96585 35989 ft 417 kts 275°
2026-05-07 08:45 48.77622 11.87907 35994 ft 417 kts 275°
2026-05-07 08:46 48.78552 11.79225 36008 ft 418 kts 275°
2026-05-07 08:46 48.79472 11.70526 36001 ft 418 kts 275°
2026-05-07 08:47 48.80381 11.61819 35997 ft 418 kts 275°
2026-05-07 08:47 48.81290 11.53097 35997 ft 419 kts 275°
2026-05-07 08:48 48.82192 11.44375 35997 ft 419 kts 275°
2026-05-07 08:48 48.83084 11.35634 36001 ft 419 kts 275°
2026-05-07 08:49 48.84142 11.26922 35981 ft 423 kts 284°
2026-05-07 08:49 48.85285 11.22757 35761 ft 432 kts 295°
2026-05-07 08:49 48.86950 11.18949 35521 ft 435 kts 306°
2026-05-07 08:50 48.89014 11.15654 35276 ft 437 kts 314°
2026-05-07 08:50 48.91261 11.12555 34948 ft 434 kts 314°
2026-05-07 08:50 48.93485 11.09457 34399 ft 433 kts 314°
2026-05-07 08:50 48.95693 11.06353 33820 ft 432 kts 314°
2026-05-07 08:51 48.97891 11.03257 33285 ft 429 kts 314°
2026-05-07 08:51 49.00072 11.00189 32743 ft 425 kts 315°
2026-05-07 08:51 49.02237 10.97146 32231 ft 422 kts 315°
2026-05-07 08:51 49.04384 10.94124 31732 ft 418 kts 315°
2026-05-07 08:52 49.06511 10.91126 31227 ft 414 kts 315°
2026-05-07 08:52 49.08617 10.88161 30732 ft 410 kts 315°
2026-05-07 08:52 49.10704 10.85221 30247 ft 406 kts 315°
2026-05-07 08:52 49.12768 10.82308 29732 ft 402 kts 315°
2026-05-07 08:53 49.14802 10.79429 29292 ft 396 kts 315°
2026-05-07 08:53 49.16808 10.76581 28837 ft 391 kts 315°
2026-05-07 08:53 49.18789 10.73766 28410 ft 386 kts 315°
2026-05-07 08:53 49.20725 10.70968 27973 ft 381 kts 314°
2026-05-07 08:54 49.22585 10.68129 27523 ft 375 kts 314°
2026-05-07 08:54 49.24381 10.65282 27084 ft 369 kts 314°
2026-05-07 08:54 49.26136 10.62454 26643 ft 364 kts 314°
2026-05-07 08:54 49.27872 10.59656 26199 ft 360 kts 314°
2026-05-07 08:55 49.29597 10.56899 25765 ft 357 kts 314°
2026-05-07 08:55 49.31314 10.54167 25304 ft 354 kts 314°
2026-05-07 08:55 49.33019 10.51459 24851 ft 352 kts 314°
2026-05-07 08:55 49.34718 10.48766 24376 ft 350 kts 314°
2026-05-07 08:56 49.36349 10.46006 23903 ft 349 kts 307°
2026-05-07 08:56 49.37739 10.42991 23562 ft 343 kts 305°
2026-05-07 08:56 49.39081 10.40053 23186 ft 338 kts 305°
2026-05-07 08:56 49.40427 10.37114 22844 ft 335 kts 305°
2026-05-07 08:57 49.41759 10.34204 22506 ft 333 kts 305°
2026-05-07 08:57 49.43084 10.31305 22152 ft 331 kts 305°
2026-05-07 08:57 49.44401 10.28414 21840 ft 330 kts 306°
2026-05-07 08:57 49.45713 10.25528 21503 ft 328 kts 306°
2026-05-07 08:58 49.47018 10.22658 21174 ft 326 kts 306°
2026-05-07 08:58 49.48313 10.19802 20839 ft 325 kts 306°
2026-05-07 08:58 49.49601 10.16958 20509 ft 323 kts 305°
2026-05-07 08:58 49.50879 10.14133 20185 ft 321 kts 305°
2026-05-07 08:59 49.52148 10.11322 19857 ft 319 kts 305°
2026-05-07 08:59 49.53413 10.08518 19538 ft 318 kts 305°
2026-05-07 08:59 49.54674 10.05720 19210 ft 318 kts 305°
2026-05-07 08:59 49.55934 10.02924 18887 ft 317 kts 305°
2026-05-07 09:00 49.57192 10.00136 18561 ft 316 kts 305°
2026-05-07 09:00 49.58441 9.97370 18238 ft 314 kts 305°
2026-05-07 09:00 49.59687 9.94609 17891 ft 313 kts 305°
2026-05-07 09:00 49.60923 9.91865 17563 ft 311 kts 305°
2026-05-07 09:01 49.62156 9.89120 17258 ft 312 kts 305°
2026-05-07 09:01 49.63370 9.86409 16938 ft 311 kts 305°
2026-05-07 09:01 49.64595 9.83666 16620 ft 309 kts 305°
2026-05-07 09:01 49.65810 9.80941 16310 ft 307 kts 305°
2026-05-07 09:02 49.67011 9.78227 16008 ft 306 kts 305°
2026-05-07 09:02 49.68211 9.75528 15691 ft 304 kts 305°
2026-05-07 09:02 49.69405 9.72846 15389 ft 302 kts 305°
2026-05-07 09:02 49.70589 9.70187 15097 ft 300 kts 306°
2026-05-07 09:03 49.71767 9.67542 14797 ft 297 kts 306°
2026-05-07 09:03 49.73010 9.65015 14478 ft 294 kts 315°
2026-05-07 09:03 49.74499 9.62859 14141 ft 292 kts 319°
2026-05-07 09:03 49.76015 9.60781 13841 ft 290 kts 319°
2026-05-07 09:04 49.77526 9.58721 13508 ft 289 kts 319°
2026-05-07 09:04 49.79031 9.56678 13155 ft 287 kts 319°
2026-05-07 09:04 49.80529 9.54657 12790 ft 285 kts 319°
2026-05-07 09:04 49.82041 9.52625 12263 ft 290 kts 319°
2026-05-07 09:05 49.83581 9.50586 11749 ft 293 kts 319°
2026-05-07 09:05 49.85146 9.48532 11153 ft 297 kts 319°
2026-05-07 09:05 49.86713 9.46491 10534 ft 291 kts 319°
2026-05-07 09:05 49.88252 9.44506 9930 ft 285 kts 319°
2026-05-07 09:06 49.89768 9.42568 9265 ft 279 kts 319°
2026-05-07 09:06 49.91208 9.40600 8607 ft 273 kts 312°
2026-05-07 09:06 49.92449 9.38397 7950 ft 269 kts 309°
2026-05-07 09:06 49.93621 9.36199 7669 ft 261 kts 309°
2026-05-07 09:07 49.94784 9.33994 7549 ft 265 kts 309°
2026-05-07 09:07 49.95949 9.31776 7418 ft 265 kts 309°
2026-05-07 09:07 49.97098 9.29587 7303 ft 265 kts 309°
2026-05-07 09:07 49.98261 9.27371 7165 ft 265 kts 309°
2026-05-07 09:08 49.99421 9.25154 7021 ft 264 kts 309°
2026-05-07 09:08 50.00581 9.22937 6873 ft 264 kts 309°
2026-05-07 09:08 50.01739 9.20722 6723 ft 263 kts 309°
2026-05-07 09:08 50.02887 9.18511 6578 ft 263 kts 309°
2026-05-07 09:09 50.04027 9.16289 6429 ft 263 kts 309°
2026-05-07 09:09 50.05165 9.14060 6262 ft 263 kts 309°
2026-05-07 09:09 50.06295 9.11819 6109 ft 263 kts 309°
2026-05-07 09:09 50.07421 9.09576 5953 ft 262 kts 309°
2026-05-07 09:10 50.08529 9.07361 5796 ft 254 kts 309°
2026-05-07 09:10 50.09591 9.05233 5642 ft 243 kts 309°
2026-05-07 09:10 50.10602 9.03191 5488 ft 234 kts 309°
2026-05-07 09:10 50.11581 9.01200 5343 ft 230 kts 309°
2026-05-07 09:11 50.12380 8.99056 5181 ft 231 kts 290°
2026-05-07 09:11 50.12778 8.96625 5069 ft 231 kts 284°
2026-05-07 09:11 50.13110 8.94173 4994 ft 231 kts 284°
2026-05-07 09:11 50.13386 8.91705 4989 ft 233 kts 274°
2026-05-07 09:12 50.13086 8.89232 4992 ft 233 kts 252°
2026-05-07 09:12 50.12540 8.86937 4992 ft 219 kts 252°
2026-05-07 09:12 50.12024 8.84771 4887 ft 210 kts 252°
2026-05-07 09:12 50.11521 8.82634 4626 ft 210 kts 252°
2026-05-07 09:13 50.11019 8.80505 4334 ft 210 kts 253°
2026-05-07 09:13 50.10520 8.78392 4050 ft 204 kts 253°
2026-05-07 09:13 50.10046 8.76386 3742 ft 197 kts 253°
2026-05-07 09:13 50.09573 8.74385 3461 ft 191 kts 253°
2026-05-07 09:14 50.09122 8.72479 3185 ft 185 kts 253°
2026-05-07 09:14 50.08689 8.70650 2921 ft 179 kts 253°
2026-05-07 09:14 50.08274 8.68903 2686 ft 164 kts 253°
2026-05-07 09:14 50.07901 8.67333 2448 ft 147 kts 253°
2026-05-07 09:15 50.07559 8.65893 2214 ft 138 kts 253°
2026-05-07 09:15 50.07236 8.64528 2019 ft 130 kts 253°
2026-05-07 09:15 50.06926 8.63216 1827 ft 130 kts 253°
2026-05-07 09:15 50.06615 8.61898 1667 ft 130 kts 254°
2026-05-07 09:16 50.06299 8.60570 1500 ft 131 kts 253°
2026-05-07 09:16 50.05981 8.59230 1300 ft 132 kts 253°
2026-05-07 09:16 50.05664 8.57893 1100 ft 131 kts 252°
2026-05-07 09:16 50.05354 8.56586 902 ft 129 kts 251°
2026-05-07 09:17 50.05039 8.55277 682 ft 129 kts 251°
2026-05-07 09:17 50.04732 8.53989 487 ft 125 kts 251°
2026-05-07 09:17 50.04436 8.52760 359 ft 115 kts 252°
2026-05-07 09:17 50.04204 8.51786 334 ft 72 kts 249°
2026-05-07 09:18 50.04084 8.51286 328 ft 26 kts 249°
2026-05-07 09:18 50.04008 8.51070 326 ft 23 kts 231°
2026-05-07 09:18 50.03920 8.50935 326 ft 15 kts 221°
2026-05-07 09:18 50.03863 8.50860 326 ft 10 kts 220°
2026-05-07 09:19 50.03817 8.50834 330 ft 2 kts 177°
2026-05-07 09:19 50.03816 8.50834 330 ft 0 kts 175°
2026-05-07 09:19 50.03814 8.50834 330 ft 0 kts 173°
2026-05-07 09:20 50.03807 8.50838 329 ft 4 kts 164°
2026-05-07 09:20 50.03782 8.50881 331 ft 6 kts 112°
2026-05-07 09:21 50.03789 8.50958 335 ft 9 kts 69°
2026-05-07 09:21 50.03821 8.51089 334 ft 16 kts 69°
2026-05-07 09:21 50.03862 8.51263 335 ft 17 kts 70°
2026-05-07 09:21 50.03900 8.51423 334 ft 15 kts 69°
2026-05-07 09:22 50.03936 8.51572 335 ft 14 kts 69°
2026-05-07 09:22 50.03968 8.51704 332 ft 13 kts 69°
2026-05-07 09:22 50.03996 8.51823 333 ft 11 kts 70°
2026-05-07 09:22 50.04025 8.51945 335 ft 18 kts 69°
2026-05-07 09:23 50.04077 8.52161 351 ft 24 kts 70°
2026-05-07 09:23 50.04135 8.52405 350 ft 24 kts 70°
2026-05-07 09:23 50.04192 8.52640 356 ft 23 kts 69°
2026-05-07 09:23 50.04246 8.52868 360 ft 22 kts 70°
2026-05-07 09:24 50.04298 8.53085 360 ft 21 kts 69°
2026-05-07 09:24 50.04344 8.53277 368 ft 17 kts 70°
2026-05-07 09:24 50.04384 8.53446 373 ft 17 kts 71°
2026-05-07 09:24 50.04403 8.53643 375 ft 23 kts 82°
2026-05-07 09:25 50.04421 8.53905 375 ft 27 kts 83°
2026-05-07 09:25 50.04438 8.54145 375 ft 21 kts 83°
2026-05-07 09:25 50.04453 8.54361 373 ft 15 kts 85°
2026-05-07 09:25 50.04450 8.54508 368 ft 15 kts 103°
2026-05-07 09:26 50.04399 8.54667 367 ft 17 kts 128°
2026-05-07 09:26 50.04329 8.54759 358 ft 11 kts 150°
2026-05-07 09:26 50.04246 8.54809 357 ft 14 kts 161°
2026-05-07 09:26 50.04183 8.54844 357 ft 9 kts 160°
2026-05-07 09:27 50.04119 8.54881 356 ft 10 kts 159°
2026-05-07 09:27 50.04056 8.54918 355 ft 9 kts 159°
2026-05-07 09:27 50.04038 8.55100 359 ft 17 kts 69°
2026-05-07 09:28 50.04082 8.55282 358 ft 18 kts 70°
2026-05-07 09:28 50.04126 8.55466 355 ft 18 kts 69°
2026-05-07 09:28 50.04168 8.55640 356 ft 16 kts 70°
2026-05-07 09:28 50.04204 8.55793 357 ft 14 kts 69°
2026-05-07 09:29 50.04234 8.55917 357 ft 11 kts 70°
2026-05-07 09:29 50.04260 8.56025 359 ft 10 kts 69°
2026-05-07 09:29 50.04284 8.56126 362 ft 10 kts 69°
2026-05-07 09:29 50.04313 8.56249 363 ft 14 kts 70°
2026-05-07 09:30 50.04352 8.56412 356 ft 19 kts 70°
2026-05-07 09:30 50.04400 8.56612 363 ft 19 kts 70°
2026-05-07 09:30 50.04439 8.56775 360 ft 12 kts 70°
2026-05-07 09:30 50.04460 8.56860 363 ft 8 kts 70°
2026-05-07 09:31 50.04481 8.56950 361 ft 12 kts 70°
2026-05-07 09:31 50.04518 8.57107 363 ft 18 kts 70°
2026-05-07 09:31 50.04562 8.57291 359 ft 18 kts 69°
2026-05-07 09:31 50.04605 8.57471 364 ft 18 kts 69°
2026-05-07 09:32 50.04646 8.57644 363 ft 17 kts 70°
2026-05-07 09:32 50.04687 8.57813 364 ft 16 kts 70°
2026-05-07 09:32 50.04740 8.57935 358 ft 13 kts 40°
2026-05-07 09:32 50.04793 8.58020 360 ft 10 kts 58°
2026-05-07 09:33 50.04818 8.58118 364 ft 9 kts 70°
2026-05-07 09:33 50.04837 8.58196 361 ft 7 kts 69°
2026-05-07 09:33 50.04854 8.58268 361 ft 7 kts 69°
2026-05-07 09:33 50.04870 8.58340 361 ft 7 kts 80°
2026-05-07 09:34 50.04849 8.58394 362 ft 5 kts 149°
2026-05-07 09:34 50.04828 8.58406 365 ft 2 kts 159°
2026-05-07 09:34 50.04825 8.58408 364 ft 1 kts 159°
2026-05-07 09:34 50.04819 8.58411 363 ft 1 kts 159°
2026-05-07 09:35 50.04812 8.58416 362 ft 1 kts 160°
2026-05-07 09:35 50.04807 8.58418 368 ft 0 kts 160°
2026-05-07 09:35 50.04806 8.58419 368 ft 0 kts 160°
2026-05-07 09:35 50.04804 8.58420 368 ft 0 kts 160°